| time (UTC) | temp F | wind direction | speed MPH | gust MPH | rain 1hr in | rain 24hr in | rain mn in | humidity % | barometer mb |
| 20260506173333 | 77 | 83 | 3.0 | 9.0 | 0.00 | 0.00 | 0.00 | 80 | 1012.7 |
| 20260506172358 | 75 | 5 | 1.0 | 3.0 | 0.00 | 0.00 | 0.00 | 81 | 1012.9 |
| 20260506171325 | 75 | 24 | 0.0 | 5.0 | 0.00 | 0.00 | 0.00 | 81 | 1013.2 |
| 20260506170353 | 75 | 69 | 1.0 | 3.0 | 0.00 | 0.00 | 0.00 | 80 | 1013.1 |
| 20260506165415 | 77 | 56 | 2.0 | 7.0 | 0.00 | 0.00 | 0.00 | 80 | 1013.1 |
| 20260506163332 | 78 | 74 | 2.0 | 9.0 | 0.00 | 0.00 | 0.00 | 83 | 1013.0 |
| 20260506161329 | 78 | 60 | 2.0 | 6.0 | 0.00 | 0.00 | 0.00 | 83 | 1012.9 |
| 20260506160351 | 77 | 78 | 4.0 | 10.0 | 0.00 | 0.00 | 0.00 | 84 | 1012.8 |
| 20260506155407 | 78 | 64 | 2.0 | 5.0 | 0.00 | 0.00 | 0.00 | 85 | 1012.9 |
| 20260506154326 | 77 | 88 | 0.0 | 2.0 | 0.00 | 0.00 | 0.00 | 85 | 1012.9 |
| 20260506151402 | 76 | 71 | 3.0 | 5.0 | 0.00 | 0.00 | 0.00 | 87 | 1012.1 |
| 20260506150324 | 75 | 186 | 0.0 | 2.0 | 0.00 | 0.00 | 0.00 | 88 | 1011.9 |
| 20260506145358 | 75 | 186 | 1.0 | 3.0 | 0.00 | 0.00 | 0.00 | 89 | 1011.9 |
| 20260506144331 | 75 | 186 | 0.0 | 1.0 | 0.00 | 0.00 | 0.00 | 89 | 1011.9 |
| 20260506142323 | 75 | 186 | 0.0 | 0.0 | 0.00 | 0.00 | 0.00 | 89 | 1012.1 |
| 20260506141359 | 75 | 186 | 0.0 | 3.0 | 0.00 | 0.00 | 0.00 | 90 | 1012.0 |
| 20260506140331 | 75 | 186 | 1.0 | 3.0 | 0.00 | 0.00 | 0.00 | 90 | 1011.6 |
| 20260506134328 | 75 | 156 | 2.0 | 6.0 | 0.00 | 0.00 | 0.00 | 90 | 1011.0 |
| 20260506133351 | 75 | 155 | 2.0 | 4.0 | 0.00 | 0.00 | 0.00 | 90 | 1010.7 |
| 20260506132413 | 75 | 136 | 3.0 | 6.0 | 0.00 | 0.00 | 0.00 | 90 | 1010.6 |
| 20260506131328 | 75 | 88 | 2.0 | 6.0 | 0.00 | 0.00 | 0.00 | 90 | 1010.6 |
| 20260506130350 | 75 | 101 | 1.0 | 5.0 | 0.00 | 0.00 | 0.00 | 90 | 1010.4 |
| 20260506125324 | 74 | 171 | 3.0 | 4.0 | 0.00 | 0.00 | 0.00 | 90 | 1010.2 |
| 20260506124356 | 74 | 162 | 2.0 | 6.0 | 0.00 | 0.00 | 0.00 | 90 | 1010.4 |
| 20260506123420 | 74 | 157 | 2.0 | 5.0 | 0.00 | 0.00 | 0.00 | 90 | 1010.3 |
| 20260506122343 | 74 | 161 | 1.0 | 5.0 | 0.00 | 0.00 | 0.00 | 90 | 1010.4 |
| 20260506121400 | 74 | 161 | 1.0 | 2.0 | 0.00 | 0.00 | 0.00 | 90 | 1010.5 |
| 20260506120330 | 74 | 161 | 0.0 | 0.0 | 0.00 | 0.00 | 0.00 | 90 | 1010.4 |
| 20260506115406 | 74 | 161 | 0.0 | 1.0 | 0.00 | 0.00 | 0.00 | 90 | 1010.4 |
| 20260506114325 | 74 | 161 | 0.0 | 0.0 | 0.00 | 0.00 | 0.00 | 90 | 1010.3 |
| 20260506113358 | 74 | 161 | 0.0 | 0.0 | 0.00 | 0.00 | 0.00 | 90 | 1010.2 |
| 20260506112414 | 74 | 161 | 0.0 | 1.0 | 0.00 | 0.00 | 0.00 | 89 | 1010.2 |
| 20260506111421 | 74 | 161 | 0.0 | 2.0 | 0.00 | 0.00 | 0.00 | 89 | 1010.1 |
| 20260506105339 | 74 | 131 | 1.0 | 3.0 | 0.00 | 0.00 | 0.00 | 89 | 1010.1 |
| 20260506104344 | 74 | 157 | 1.0 | 5.0 | 0.00 | 0.00 | 0.00 | 89 | 1010.0 |
| 20260506103357 | 74 | 194 | 0.0 | 5.0 | 0.00 | 0.00 | 0.00 | 90 | 1009.8 |
| 20260506102417 | 74 | 192 | 1.0 | 5.0 | 0.00 | 0.00 | 0.00 | 90 | 1009.9 |
| 20260506100325 | 74 | 147 | 1.0 | 5.0 | 0.00 | 0.00 | 0.00 | 90 | 1010.0 |
| 20260506093348 | 75 | 186 | 1.0 | 5.0 | 0.00 | 0.00 | 0.00 | 88 | 1009.8 |
| 20260506092417 | 75 | 199 | 2.0 | 7.0 | 0.00 | 0.00 | 0.00 | 88 | 1009.9 |
| 20260506091335 | 75 | 162 | 2.0 | 10.0 | 0.00 | 0.00 | 0.00 | 88 | 1009.7 |
| 20260506090419 | 75 | 196 | 5.0 | 11.0 | 0.00 | 0.00 | 0.00 | 88 | 1009.7 |
| 20260506083408 | 75 | 168 | 4.0 | 10.0 | 0.00 | 0.00 | 0.00 | 88 | 1009.6 |
| 20260506082323 | 75 | 203 | 5.0 | 9.0 | 0.00 | 0.00 | 0.00 | 88 | 1009.6 |
| 20260506081426 | 75 | 146 | 4.0 | 11.0 | 0.00 | 0.00 | 0.00 | 89 | 1009.8 |
| 20260506080351 | 75 | 187 | 4.0 | 8.0 | 0.00 | 0.00 | 0.00 | 89 | 1009.9 |
| 20260506073416 | 75 | 155 | 4.0 | 9.0 | 0.00 | 0.00 | 0.00 | 89 | 1010.0 |
| 20260506072422 | 75 | 157 | 2.0 | 8.0 | 0.00 | 0.00 | 0.00 | 89 | 1010.0 |
| 20260506070351 | 75 | 156 | 3.0 | 12.0 | 0.00 | 0.00 | 0.00 | 89 | 1010.2 |
| 20260506062342 | 75 | 184 | 3.0 | 11.0 | 0.00 | 0.00 | 0.00 | 88 | 1010.4 |
| 20260506061326 | 75 | 161 | 5.0 | 10.0 | 0.00 | 0.00 | 0.00 | 88 | 1010.4 |
| 20260506060338 | 75 | 197 | 4.0 | 10.0 | 0.00 | 0.00 | 0.00 | 88 | 1010.5 |
| 20260506051328 | 76 | 150 | 4.0 | 8.0 | 0.00 | 0.00 | 0.00 | 88 | 1010.2 |
| 20260506050335 | 76 | 165 | 3.0 | 8.0 | 0.00 | 0.00 | 0.00 | 87 | 1010.4 |
| 20260506044421 | 76 | 142 | 5.0 | 10.0 | 0.00 | 0.00 | 0.00 | 87 | 1010.2 |
| 20260506043346 | 77 | 123 | 5.0 | 10.0 | 0.00 | 0.00 | 0.00 | 87 | 1010.2 |
| 20260506042421 | 77 | 143 | 3.0 | 10.0 | 0.00 | 0.00 | 0.00 | 87 | 1010.3 |
| 20260506041332 | 77 | 163 | 4.0 | 9.0 | 0.00 | 0.00 | 0.00 | 87 | 1010.2 |
| 20260506040348 | 77 | 217 | 3.0 | 8.0 | 0.00 | 0.00 | 0.00 | 87 | 1010.0 |
| 20260506035422 | 77 | 169 | 3.0 | 7.0 | 0.00 | 0.00 | 0.00 | 86 | 1009.9 |
| 20260506032341 | 77 | 138 | 5.0 | 10.0 | 0.00 | 0.00 | 0.00 | 85 | 1009.5 |
| 20260506031410 | 77 | 147 | 6.0 | 9.0 | 0.00 | 0.00 | 0.00 | 85 | 1009.3 |
| 20260506030412 | 78 | 155 | 3.0 | 6.0 | 0.00 | 0.00 | 0.00 | 84 | 1009.1 |
| 20260506025342 | 78 | 146 | 3.0 | 7.0 | 0.00 | 0.00 | 0.00 | 84 | 1008.9 |
| 20260506024358 | 78 | 151 | 2.0 | 5.0 | 0.00 | 0.00 | 0.00 | 83 | 1008.9 |
| 20260506023323 | 79 | 159 | 3.0 | 8.0 | 0.00 | 0.00 | 0.00 | 82 | 1008.8 |
| 20260506022358 | 79 | 140 | 3.0 | 5.0 | 0.00 | 0.00 | 0.00 | 81 | 1008.6 |
| 20260506021420 | 79 | 135 | 1.0 | 4.0 | 0.00 | 0.00 | 0.00 | 81 | 1008.4 |
| 20260506014354 | 80 | 143 | 1.0 | 3.0 | 0.00 | 0.00 | 0.00 | 80 | 1007.9 |
| 20260506013415 | 80 | 132 | 1.0 | 3.0 | 0.00 | 0.00 | 0.00 | 79 | 1007.9 |
| 20260506012345 | 80 | 133 | 0.0 | 0.0 | 0.00 | 0.00 | 0.00 | 78 | 1007.8 |
| 20260506011404 | 81 | 132 | 0.0 | 3.0 | 0.00 | 0.00 | 0.00 | 77 | 1007.8 |
| 20260506010332 | 82 | 132 | 2.0 | 4.0 | 0.00 | 0.00 | 0.00 | 76 | 1007.7 |
| 20260506005341 | 82 | 145 | 2.0 | 3.0 | 0.00 | 0.00 | 0.00 | 75 | 1007.7 |
| 20260506004408 | 83 | 141 | 1.0 | 3.0 | 0.00 | 0.00 | 0.00 | 74 | 1007.7 |
| 20260506003328 | 84 | 220 | 0.0 | 0.0 | 0.00 | 0.00 | 0.00 | 74 | 1007.6 |
| 20260506002403 | 84 | 220 | 0.0 | 0.0 | 0.00 | 0.00 | 0.00 | 72 | 1007.7 |
| 20260506001335 | 84 | 220 | 0.0 | 4.0 | 0.00 | 0.00 | 0.00 | 71 | 1007.6 |
| 20260506000340 | 84 | 186 | 3.0 | 5.0 | 0.00 | 0.00 | 0.00 | 70 | 1007.5 |
| 20260505235408 | 84 | 190 | 0.0 | 3.0 | 0.00 | 0.00 | 0.00 | 70 | 1007.5 |
| 20260505234329 | 84 | 190 | 2.0 | 8.0 | 0.00 | 0.00 | 0.00 | 69 | 1007.5 |
| 20260505233402 | 85 | 252 | 5.0 | 9.0 | 0.00 | 0.00 | 0.00 | 68 | 1007.5 |
| 20260505232420 | 84 | 127 | 2.0 | 6.0 | 0.00 | 0.00 | 0.00 | 69 | 1007.4 |
| 20260505230333 | 85 | 186 | 4.0 | 10.0 | 0.00 | 0.00 | 0.00 | 68 | 1007.5 |
| 20260505225400 | 85 | 92 | 6.0 | 10.0 | 0.00 | 0.00 | 0.00 | 68 | 1007.4 |
| 20260505224422 | 85 | 184 | 3.0 | 10.0 | 0.00 | 0.00 | 0.00 | 69 | 1007.3 |
| 20260505223347 | 85 | 113 | 5.0 | 10.0 | 0.00 | 0.00 | 0.00 | 68 | 1007.2 |
| 20260505222403 | 85 | 149 | 3.0 | 9.0 | 0.00 | 0.00 | 0.00 | 69 | 1007.4 |
| 20260505221422 | 85 | 211 | 4.0 | 9.0 | 0.00 | 0.00 | 0.00 | 68 | 1007.4 |
| 20260505220339 | 85 | 171 | 4.0 | 10.0 | 0.00 | 0.00 | 0.00 | 68 | 1007.4 |
| 20260505215411 | 85 | 244 | 4.0 | 9.0 | 0.00 | 0.00 | 0.00 | 69 | 1007.4 |
| 20260505214343 | 84 | 160 | 3.0 | 8.0 | 0.00 | 0.00 | 0.00 | 69 | 1007.6 |
| 20260505213405 | 84 | 209 | 5.0 | 9.0 | 0.00 | 0.00 | 0.00 | 69 | 1007.9 |
| 20260505212327 | 84 | 251 | 3.0 | 9.0 | 0.00 | 0.00 | 0.00 | 69 | 1008.1 |
| 20260505211353 | 83 | 132 | 2.0 | 9.0 | 0.00 | 0.00 | 0.00 | 70 | 1008.1 |
| 20260505210421 | 83 | 147 | 3.0 | 8.0 | 0.00 | 0.00 | 0.00 | 70 | 1008.2 |
| 20260505205343 | 83 | 189 | 4.0 | 11.0 | 0.00 | 0.00 | 0.00 | 71 | 1008.5 |
| 20260505204414 | 83 | 240 | 3.0 | 11.0 | 0.00 | 0.00 | 0.00 | 70 | 1008.5 |
| 20260505203325 | 83 | 246 | 6.0 | 11.0 | 0.00 | 0.00 | 0.00 | 70 | 1008.7 |
| 20260505202353 | 83 | 151 | 5.0 | 9.0 | 0.00 | 0.00 | 0.00 | 70 | 1008.8 |
| 20260505201327 | 82 | 133 | 4.0 | 8.0 | 0.00 | 0.00 | 0.00 | 71 | 1008.9 |
| 20260505200356 | 82 | 161 | 3.0 | 7.0 | 0.00 | 0.00 | 0.00 | 72 | 1009.1 |
| 20260505195325 | 82 | 215 | 4.0 | 10.0 | 0.00 | 0.00 | 0.00 | 72 | 1009.1 |
| 20260505193358 | 81 | 150 | 4.0 | 10.0 | 0.00 | 0.00 | 0.00 | 75 | 1009.4 |
| 20260505192325 | 81 | 179 | 4.0 | 12.0 | 0.00 | 0.00 | 0.00 | 74 | 1009.5 |
| 20260505191342 | 81 | 140 | 4.0 | 10.0 | 0.00 | 0.00 | 0.00 | 74 | 1009.7 |
| 20260505190413 | 80 | 249 | 5.0 | 9.0 | 0.00 | 0.00 | 0.00 | 76 | 1009.8 |
| 20260505185335 | 79 | 138 | 4.0 | 10.0 | 0.00 | 0.00 | 0.00 | 77 | 1010.0 |
| 20260505184411 | 79 | 168 | 5.0 | 10.0 | 0.00 | 0.00 | 0.00 | 76 | 1010.1 |
| 20260505183336 | 79 | 177 | 4.0 | 9.0 | 0.00 | 0.00 | 0.00 | 77 | 1010.2 |
| 20260505182400 | 79 | 233 | 4.0 | 10.0 | 0.00 | 0.00 | 0.00 | 78 | 1010.2 |
| 20260505181328 | 78 | 261 | 3.0 | 11.0 | 0.00 | 0.00 | 0.00 | 78 | 1010.4 |
| 20260505180348 | 77 | 213 | 3.0 | 8.0 | 0.00 | 0.00 | 0.00 | 80 | 1010.4 |
| 20260505175417 | 77 | 242 | 4.0 | 9.0 | 0.00 | 0.00 | 0.00 | 79 | 1010.6 |
| 20260505174328 | 77 | 236 | 3.0 | 11.0 | 0.00 | 0.00 | 0.00 | 79 | 1010.7 |